Terminal Aerodrome Forecast
Issued by NWS

Home | Current Version | Previous Version | Text Only | Print | Product List | Glossary On
Versions: 1 2 3 4 5 6 7 8 9 10 11 12 13 14 15 16 17 18 19 20 21 22 23 24 25 26 27 28 29 30 31 32 33 34 35 36 37 38 39 40 41 42 43 44 45 46 47 48 49 50
000
FTUS46 KEKA 212300
TAFACV
TAF
KACV 212339Z 2200/2224 31010KT P6SM SKC
     FM220300 34004KT P6SM SCT007
      TEMPO 2204/2206 BKN007
     FM220600 VRB03KT 5SM BR SCT004 OVC007
     FM221000 VRB03KT 3SM BR OVC004
     FM221800 30010KT 6SM BR BKN007
     FM222300 32012KT P6SM SCT007=

USA.gov is the U.S. government's official web portal to all federal, state and local government web resources and services.